Weather History for Kalaeloa, HI

Change the Weather History Date:

Wednesday, April 16, 2014

  Actual Average (PHNL) Record (PHNL)
Temperature  
Mean Temperature 75 °F 76 °F  
Max Temperature 84 °F 83 °F 88 °F (1988)
Min Temperature 66 °F 69 °F 63 °F (1959)
Degree Days  
Heating Degree Days 0 0  
Month to date heating degree days 0  
Since 1 July heating degree days 0  
Cooling Degree Days 10 11  
Month to date cooling degree days 176  
Year to date cooling degree days 951  
Growing Degree Days 25 (Base 50)    
Moisture  
Dew Point 62 °F    
Average Humidity 65    
Maximum Humidity 81    
Minimum Humidity 44    
Precipitation  
Precipitation 0.00 in 0.02 in 2.07 in (1968)
Month to date precipitation 0.43  
Year to date precipitation 6.75  
Snow  
Snow 0.00 in - - ()
Month to date snowfall  
Since 1 July snowfall  
Snow Depth -    
Sea Level Pressure  
Sea Level Pressure 30.11 in    
Wind  
Wind Speed 4 mph (ENE)    
Max Wind Speed 15 mph    
Max Gust Speed 24 mph    
Visibility 10 miles    
Events      
T = Trace of Precipitation, MM = Missing Value Source: NWS Daily Summary

Daily Weather History Graph

Daily Weather History Graph

Search for Another Location

Airport:

Trip Planner

Search our weather history database for the weather conditions in past years. The results will help you decide how hot, cold, wet, or windy it might be!

Date:

Astronomy

Apr. 16, 2014 Rise Set
Actual Time 6:12 AM HST 6:52 PM HST
Civil Twilight 5:49 AM HST 7:14 PM HST
Nautical Twilight 5:22 AM HST 7:41 PM HST
Astronomical Twilight 4:55 AM HST 8:08 PM HST
Moon 8:35 PM HST (4/16) 7:16 AM HST (4/16)
Length of Visible Light 13h 25m
Length of Day
12h 39m
Full, 97% of the Moon is Illuminated
Apr 16
Full
Apr 21
Last Quarter
Apr 28
New
May 6
First Quarter
May 14
Full

Hourly Weather History & Observations

Time (HST) Temp. Heat Index Dew Point Humidity Pressure Visibility Wind Dir Wind Speed Gust Speed Precip Events Conditions
12:53 AM 69.1 °F - 62.1 °F 78% 30.14 in 10.0 mi Calm Calm - N/A   Clear
1:53 AM 71.1 °F - 63.0 °F 75% 30.11 in 10.0 mi Variable 5.8 mph - N/A   Clear
2:15 AM 71.6 °F - 62.6 °F 73% 30.09 in 10.0 mi Variable 4.6 mph - N/A   Partly Cloudy
2:53 AM 70.0 °F - 62.1 °F 76% 30.10 in 10.0 mi Calm Calm - N/A   Partly Cloudy
3:53 AM 69.1 °F - 61.0 °F 75% 30.09 in 10.0 mi Calm Calm - N/A   Clear
4:19 AM 69.8 °F - 60.8 °F 73% 30.07 in 10.0 mi Calm Calm - N/A   Partly Cloudy
4:53 AM 66.9 °F - 61.0 °F 81% 30.10 in 10.0 mi Variable 3.5 mph - N/A   Clear
5:53 AM 66.0 °F - 60.1 °F 81% 30.12 in 10.0 mi Calm Calm - N/A   Clear
6:53 AM 69.1 °F - 61.0 °F 75% 30.13 in 10.0 mi Calm Calm - N/A   Clear
7:53 AM 73.0 °F - 62.1 °F 68% 30.14 in 10.0 mi Variable 6.9 mph - N/A   Unknown
8:53 AM 78.1 °F - 62.1 °F 58% 30.15 in 10.0 mi ENE 8.1 mph 19.6 mph N/A   Partly Cloudy
9:53 AM 79.0 °F - 60.1 °F 52% 30.14 in 10.0 mi ENE 9.2 mph 20.7 mph N/A   Partly Cloudy
10:53 AM 82.0 °F 82.4 °F 60.1 °F 47% 30.13 in 10.0 mi NE 10.4 mph 19.6 mph N/A   Partly Cloudy
11:53 AM 82.9 °F 83.3 °F 61.0 °F 47% 30.11 in 10.0 mi ENE 11.5 mph 23.0 mph N/A   Partly Cloudy
12:53 PM 84.9 °F 85.0 °F 61.0 °F 44% 30.09 in 10.0 mi NE 8.1 mph 19.6 mph N/A   Partly Cloudy
1:53 PM 82.9 °F 83.3 °F 61.0 °F 47% 30.06 in 10.0 mi East 11.5 mph 24.2 mph N/A   Partly Cloudy
2:53 PM 82.9 °F 83.2 °F 60.1 °F 46% 30.06 in 10.0 mi East 15.0 mph 23.0 mph N/A   Partly Cloudy
3:53 PM 81.0 °F 81.7 °F 61.0 °F 50% 30.06 in 10.0 mi Variable 6.9 mph 19.6 mph N/A   Partly Cloudy
4:53 PM 81.0 °F 82.2 °F 63.0 °F 54% 30.07 in 10.0 mi ENE 9.2 mph 23.0 mph N/A   Scattered Clouds
5:53 PM 78.1 °F - 62.1 °F 58% 30.08 in 10.0 mi Variable 6.9 mph 16.1 mph N/A   Clear
6:53 PM 75.9 °F - 62.1 °F 62% 30.11 in 10.0 mi ENE 9.2 mph - N/A   Partly Cloudy
7:53 PM 73.9 °F - 63.0 °F 68% 30.13 in 10.0 mi Variable 4.6 mph - N/A   Clear
8:53 PM 73.0 °F - 63.0 °F 71% 30.15 in 10.0 mi Variable 3.5 mph - N/A   Clear
9:53 PM 72.0 °F - 64.0 °F 76% 30.17 in 10.0 mi ENE 3.5 mph - N/A   Clear
10:53 PM 72.0 °F - 64.0 °F 76% 30.16 in 10.0 mi Calm Calm - N/A   Partly Cloudy
11:53 PM 71.1 °F - 64.0 °F 78% 30.16 in 10.0 mi Variable 3.5 mph - N/A   Clear